STARLINK-32153, 60330

Orbit data source: Space-Track

STARLINK-32153, 60330 is a payload satellite owned by SpaceX/Seattle (US) in LEO that was launched on Fri, 02 Aug 2024 UTC via an FALCON 9 launch vehicle from the Air Force Eastern Test Range (AFETR). Payloads include a variety of satellites, spacecraft, and rockets equipped with specific instruments for various scientific and technological missions. These include communications satellites like Starlink; space stations such as the ISS; scientific satellites like the Hubble; Earth observation satellites from companies like Planet Labs, Umbra, and HawkEye 360; GPS; miniature CubeSats for education and research; and military/defense satellites.

Loading next visibility...
STARLINK-32153 details
Identifier
60330, 2024-136B
Orbit
LEO
Last TLE update7 hours ago
Origin
Flag of USSpaceX/Seattle (US)
ManufacturerSpaceX/Seattle
MissionOperational spacecraft
Bus & MotorSTARLINK V2M, Unknown motor
Mass730 kg wet, ~700 kg dry
Launch date (UTC)
2024-08-02 (5 months ago)
Launch vehicle
FALCON 9
Launch site
Air Force Eastern Test Range (AFETR)
Object type
Payload
Rocket body
Debris
Shape & HBRUnknown
Radar Cross SectionLarge (>1 m²)

Expand to show TLE details & history

TLE from 7 hours ago
0 STARLINK-32153
1 60330U 24136B   24356.94297137  .00001534  00000-0  63910-4 0  9996
2 60330  53.1625 332.4939 0001394  81.7275 278.3884 15.30193913 21879
Epoch: 2024-12-21T22:37Z
Definitive object data (Epoch: 2024-12-21T22:37:52.726Z)
Latitude-0°
Longitude-97.96268°
Altitude475.994 km
Speed7.629 km/s
True Right ascension22h 09m 58s
True Declination0° 00' 00"
Sunlit
Object was in daylight at TLE epoch
Visualization TLE readout
Latitude4.32078°
Longitude77.44984°
Altitude475.704 km
Speed7.629 km/s
Apparent Right ascension12h 30m 56s
Apparent Declination-25° 32' 08"
Sunlit
Object is in full shadow
Visualization observer readout
Local Sidereal Time04:44:17
Azimuth95.017° ESE
Elevation-35.958°
Doppler factor1
Orbital elements
Apogee altitude476.445 km
Perigee altitude474.534 km
Semi-major axis6,853.626 km
Eccentricity0.0001394
Inclination53.1625°
RAAN332.4939°
Arg. of periapsis81.7275°
True anomaly278.3726°
Mean anomaly278.3884°
Eccentric anomaly278.3805°
Mean motion3.82527 °/min
BSTAR0.00006391
Orbital period94.11 mins
Loading maneuver chart data...
Loading historical data...
Loading historical data...
Loading historical data...
Loading historical data...
Loading historical data...
Loading historical data...
Loading historical data...

STARLINK-32153 Visibility forecast

Observer location: undefined°, undefined

Span
Click to sort rows by Start time (UTC) header in descending order
Start Az.
Max El. time (UTC)
Max El. Az.
Max El.
End time (UTC)
End Az.
4 mins2024-12-22 06:55:39.274Z344.955° N2024-12-22 06:57:39.274Z26.686° NE19.868°2024-12-22 06:59:39.274Z66.939° ENE
5 mins2024-12-22 08:33:39.274Z300.628° NW2024-12-22 08:35:39.274Z239.123° WSW42.509°2024-12-22 08:38:39.274Z141.933° SSE
6 mins2024-12-23 01:28:39.274Z242.047° WSW2024-12-23 01:31:39.274Z2.211° NNE40.714°2024-12-23 01:34:39.274Z44.707° NE
|